This demonstration page uses our WeatherBlox Daily Observations layout. Learn more.

39.29038, -76.61219

Hourly Observations for December 3, 2019

Temp ( °F °C ) Dew Point ( °F °C ) Humidity (%) Winds ( mph kmh ) Pressure ( in mb ) Visibility ( mi km ) Precip ( " mm )
12:54 am 00:54 undefined 40 4.4 29 -1.7 65 65 undefined N/A 29.65 1004 N/A 0 0
1:54 am 01:54 undefined 39 3.9 29 -1.7 67 67 undefined N/A 29.65 1004 N/A 0 0
2:54 am 02:54 undefined 40 4.4 29 -1.7 65 65 undefined N/A 29.65 1004 N/A 0 0
3:54 am 03:54 undefined 40 4.4 29 -1.7 65 65 undefined N/A 29.65 1004 N/A 0 0
4:54 am 04:54 undefined 40 4.4 28 -2.2 63 63 undefined N/A 29.65 1004 N/A 0 0
5:54 am 05:54 undefined 40 4.4 28 -2.2 63 63 undefined N/A 29.65 1004 N/A 0 0
6:54 am 06:54 undefined 39 3.9 28 -2.2 65 65 undefined N/A 29.68 1005 N/A 0 0
7:54 am 07:54 undefined 39 3.9 27 -2.8 62 62 undefined N/A 29.68 1005 N/A 0 0
8:54 am 08:54 undefined 41 5 26 -3.3 55 55 undefined N/A 29.68 1005 N/A 0 0
9:54 am 09:54 undefined 42 5.6 24 -4.4 49 49 undefined N/A 29.71 1006 N/A 0 0
10:54 am 10:54 undefined 44 6.7 22 -5.6 41 41 undefined N/A 29.68 1005 N/A 0 0
11:54 am 11:54 undefined 45 7.2 22 -5.6 40 40 undefined N/A 29.68 1005 N/A 0 0
12:54 pm 12:54 undefined 46 7.8 23 -5 40 40 undefined N/A 29.68 1005 N/A 0 0
1:54 pm 13:54 undefined 47 8.3 24 -4.4 41 41 undefined N/A 29.68 1005 N/A 0 0
2:54 pm 14:54 undefined 46 7.8 26 -3.3 46 46 undefined N/A 29.65 1004 N/A 0 0
3:54 pm 15:54 undefined 45 7.2 26 -3.3 48 48 undefined N/A 29.68 1005 N/A 0 0
4:54 pm 16:54 undefined 43 6.1 26 -3.3 51 51 undefined N/A 29.68 1005 N/A 0 0
5:54 pm 17:54 undefined 41 5 26 -3.3 55 55 undefined N/A 29.68 1005 N/A 0 0
6:54 pm 18:54 undefined 41 5 27 -2.8 57 57 undefined N/A 29.68 1005 N/A 0 0
7:54 pm 19:54 undefined 39 3.9 27 -2.8 62 62 undefined N/A 29.68 1005 N/A 0 0
8:54 pm 20:54 undefined 40 4.4 27 -2.8 60 60 undefined N/A 29.68 1005 N/A 0 0
9:54 pm 21:54 undefined 39 3.9 27 -2.8 62 62 undefined N/A 29.68 1005 N/A 0 0
10:54 pm 22:54 undefined 39 3.9 28 -2.2 65 65 undefined N/A 29.68 1005 N/A 0 0
11:54 pm 23:54 undefined 40 4.4 27 -2.8 60 60 undefined N/A 29.65 1004 N/A 0 0

Powered by AerisWeather